ARIANE 44LP DEB, 33542

Orbit data source: Space-Track

ARIANE 44LP DEB, 33542 is space debris in HEO originally from a launch on Sun, 11 Dec 1988 UTC launched from the French Guiana (FRGUI). Debris objects in space refer to the collection of defunct objects orbiting the Earth. Examples of debris include non-operational satellites, rocket bodies, and fragments generated from explosions, collisions, or faulty payload assembly.

Loading next visibility...
Identifier
33542, 1988-109R
Orbit
HEO
Country
Flag of FRFR
Related business
Manufacturer
Unknown
Mission
Spacecraft
Bus & Motor
Unknown
Mass
Unknown
Launch date (UTC)
1988-12-11 (37 years ago)
Launch vehicle
Unknown
Launch site
French Guiana (FRGUI)
Object type
Payload
Rocket body
Debris
Shape & HBR
Unknown shape, 1.1 m
Radar Cross Section
Medium (>0.1 m² and <1 m²)

Expand to show TLE details & history
Last TLE update: 14 hours ago

TLE from 14 hours ago
0 ARIANE 44LP DEB
1 33542U 88109R   25340.46419661  .00000163  00000-0  57699-2 0  9992
2 33542   7.2240 279.3953 7142918 334.0078 171.4167  2.24366853167267
Epoch: 2025-12-06T11:08Z
TLE epoch observation values (Epoch: 2025-12-06T11:08:26.587Z)
Latitude
3.39913°
Longitude
-171.05781°
Altitude
35,830.114 km
Speed
1.648 km/s
True Right ascension
04h 46m 10s
True Declination
3° 23' 45"
Sunlit
Object was in daylight at epoch
Visualization orbit readout
Latitude
Unknown
Longitude
Unknown
Altitude
Unknown
Speed
Unknown
Apparent Right ascension
Unknown
Apparent Declination
Unknown
Sunlit
N/A
Visualization observer readout
Local Sidereal Time
22:42:39
Azimuth
Unknown
Elevation
Unknown
Doppler factor
Unknown
Orbital elements
Apogee altitude
35,882.633 km
Perigee altitude
665.15 km
Semi-major axis
24,652.028 km
Eccentricity
0.71429
Inclination
7.224°
RAAN
279.3953°
Arg. of periapsis
334.0078°
True anomaly
177.95379°
Mean anomaly
171.4167°
Eccentric anomaly
174.99043°
Mean motion
0.56074 °/min
Orbital period
642 mins
BSTAR
0.0057699
Loading maneuver chart data...
Computing Atmospheric mass density...
Loading historical data...
Loading historical data...
Loading historical data...
Loading historical data...
Loading historical data...
Loading historical data...
Loading historical data...

Documentation

Showing up to 5 results
|